User: anonymous   Login
Location: Unspecified
(0.0000°N, 0.0000°E)
Time: 16:04:24
(UTC+00:00)
Language:

Skynet 4B - Orbit

View from above orbital plane
View from above orbital plane
View from above satellite
View from above satellite

Ground track
Ground track

The orbit data is extracted from the following two-line orbital elements,

1 19687U 88109A   18262.56706091 -.00000260 +00000-0 +00000-0 0  9999
2 19687 015.3373 000.6322 0006533 244.7360 115.2216 00.99683410089983
Epoch (UTC): 19 September 2018 13:36:34
Eccentricity: 0.0006533
inclination: 15.3373°
perigee height: 35924 km
apogee height: 35979 km
right ascension of ascending node: 0.6322°
argument of perigee: 244.7360°
revolutions per day: 0.99683410
mean anomaly at epoch: 115.2216°
orbit number at epoch: 8998

The dashed part of the orbit path shows where the satellite is in the earth's shadow,  

DLR